Time,TemperatureF,DewpointF,PressureIn,WindDirection,WindDirectionDegrees,WindSpeedMPH,WindSpeedGustMPH,Humidity,HourlyPrecipIn,Conditions,Clouds,dailyrainin,SoftwareType,DateUTC
2013-01-06 13:12:00,44.0,41.0,30.11,WSW,238,0.0,0.0,89,0.00,,,0.06,,2013-01-06 21:12:00,
2013-01-06 13:22:00,45.0,41.0,30.10,South,177,0.0,0.0,87,0.00,,,0.06,,2013-01-06 21:22:00,
2013-01-06 13:32:00,45.0,41.0,30.10,WSW,243,0.0,0.0,86,0.00,,,0.06,,2013-01-06 21:32:00,
2013-01-06 13:42:00,45.0,41.0,30.10,WSW,243,0.0,0.0,86,0.00,,,0.06,,2013-01-06 21:42:00,
2013-01-06 13:53:00,45.0,41.0,30.10,SW,226,0.0,0.0,86,0.00,,,0.06,,2013-01-06 21:53:00,
2013-01-06 14:02:00,45.0,40.0,30.10,SSW,207,0.0,0.0,84,0.00,,,0.06,,2013-01-06 22:02:00,
2013-01-06 14:12:00,45.0,40.0,30.10,SSW,207,0.0,0.0,84,0.00,,,0.06,,2013-01-06 22:12:00,
2013-01-06 14:22:00,46.0,41.0,30.09,SSW,207,0.0,0.0,83,0.00,,,0.05,,2013-01-06 22:22:00,
2013-01-06 14:32:00,46.0,41.0,30.09,SSW,207,0.0,0.0,83,0.00,,,0.05,,2013-01-06 22:32:00,
2013-01-06 14:42:00,46.0,41.0,30.09,SSW,207,0.0,0.0,83,0.00,,,0.05,,2013-01-06 22:42:00,
2013-01-06 14:52:00,46.0,41.0,30.08,SSW,205,0.0,0.0,81,0.00,,,0.05,,2013-01-06 22:52:00,
2013-01-06 15:02:00,47.0,41.0,30.08,South,184,0.0,0.0,80,0.00,,,0.05,,2013-01-06 23:02:00,
2013-01-06 15:12:00,47.0,41.0,30.08,South,184,0.0,0.0,80,0.00,,,0.05,,2013-01-06 23:12:00,
2013-01-06 15:22:00,47.0,41.0,30.08,South,181,0.0,0.0,78,0.00,,,0.05,,2013-01-06 23:22:00,
2013-01-06 15:32:00,47.0,41.0,30.08,South,186,0.0,0.0,78,0.00,,,0.05,,2013-01-06 23:32:00,
2013-01-06 15:42:00,47.0,41.0,30.08,South,186,0.0,0.0,78,0.00,,,0.05,,2013-01-06 23:42:00,
2013-01-06 15:53:00,47.0,40.0,30.09,South,186,0.0,0.0,77,0.00,,,0.05,,2013-01-06 23:53:00,
2013-01-06 16:02:00,47.0,40.0,30.09,South,186,0.0,0.0,76,0.00,,,0.05,,2013-01-07 00:02:00,
2013-01-06 16:12:00,47.0,40.0,30.09,South,186,0.0,0.0,76,0.00,,,0.05,,2013-01-07 00:12:00,
2013-01-06 16:22:00,47.0,41.0,30.07,South,186,0.0,0.0,78,0.00,,,0.05,,2013-01-07 00:22:00,
2013-01-06 16:32:00,47.0,41.0,30.07,South,186,0.0,0.0,78,0.00,,,0.05,,2013-01-07 00:32:00,
2013-01-06 16:42:00,47.0,41.0,30.07,South,186,0.0,0.0,78,0.00,,,0.05,,2013-01-07 00:42:00,
2013-01-06 16:53:00,46.0,40.0,30.06,South,186,0.0,0.0,80,0.00,,,0.05,,2013-01-07 00:53:00,
2013-01-06 17:02:00,46.0,41.0,30.06,South,186,0.0,0.0,81,0.00,,,0.05,,2013-01-07 01:02:00,
2013-01-06 17:12:00,46.0,41.0,30.06,South,186,0.0,0.0,81,0.00,,,0.05,,2013-01-07 01:12:00,
2013-01-06 17:22:00,45.0,40.0,30.07,South,186,0.0,0.0,83,0.00,,,0.05,,2013-01-07 01:22:00,
2013-01-06 17:32:00,45.0,40.0,30.07,South,186,0.0,0.0,84,0.00,,,0.05,,2013-01-07 01:32:00,
2013-01-06 17:42:00,45.0,40.0,30.07,South,186,0.0,0.0,84,0.00,,,0.05,,2013-01-07 01:42:00,
2013-01-06 17:53:00,45.0,40.0,30.06,South,186,0.0,0.0,84,0.00,,,0.03,,2013-01-07 01:53:00,
2013-01-06 18:01:00,45.0,41.0,30.06,South,186,0.0,0.0,85,0.00,,,0.03,,2013-01-07 02:01:00,
2013-01-06 18:11:00,45.0,41.0,30.06,South,186,0.0,0.0,85,0.00,,,0.03,,2013-01-07 02:11:00,
2013-01-06 18:22:00,44.0,39.0,30.06,South,186,0.0,0.0,84,0.00,,,0.03,,2013-01-07 02:22:00,
2013-01-06 18:32:00,44.0,40.0,30.06,South,186,0.0,0.0,85,0.00,,,0.03,,2013-01-07 02:32:00,
2013-01-06 18:42:00,44.0,40.0,30.06,South,186,0.0,0.0,85,0.00,,,0.03,,2013-01-07 02:42:00,
2013-01-06 18:53:00,44.0,40.0,30.06,South,186,0.0,0.0,86,0.00,,,0.03,,2013-01-07 02:53:00,
2013-01-06 19:02:00,45.0,41.0,30.06,South,186,0.0,0.0,86,0.00,,,0.03,,2013-01-07 03:02:00,
2013-01-06 19:11:00,45.0,41.0,30.06,South,186,0.0,0.0,86,0.00,,,0.03,,2013-01-07 03:11:00,
2013-01-06 19:22:00,45.0,41.0,30.05,South,186,0.0,0.0,85,0.00,,,0.03,,2013-01-07 03:22:00,
2013-01-06 19:32:00,45.0,40.0,30.05,SSE,165,0.0,0.0,84,0.00,,,0.03,,2013-01-07 03:32:00,
2013-01-06 19:42:00,45.0,40.0,30.05,SSE,165,0.0,0.0,84,0.00,,,0.03,,2013-01-07 03:42:00,
2013-01-06 19:52:00,46.0,40.0,30.05,SSE,168,0.0,0.0,79,0.00,,,0.03,,2013-01-07 03:52:00,
2013-01-06 20:02:00,46.0,40.0,30.05,South,169,0.0,0.0,78,0.00,,,0.03,,2013-01-07 04:02:00,
2013-01-06 20:12:00,46.0,40.0,30.05,South,169,0.0,0.0,78,0.00,,,0.03,,2013-01-07 04:12:00,
2013-01-06 20:22:00,46.0,40.0,30.05,South,169,0.0,0.0,78,0.00,,,0.03,,2013-01-07 04:22:00,
2013-01-06 20:32:00,46.0,40.0,30.05,SE,144,0.0,0.0,78,0.00,,,0.03,,2013-01-07 04:32:00,
2013-01-06 20:42:00,46.0,40.0,30.05,SE,144,0.0,0.0,78,0.00,,,0.03,,2013-01-07 04:42:00,
2013-01-06 20:52:00,46.0,39.0,30.05,SSE,166,0.0,0.0,76,0.00,,,0.03,,2013-01-07 04:52:00,
2013-01-06 21:02:00,47.0,39.0,30.05,South,176,0.0,0.0,75,0.00,,,0.03,,2013-01-07 05:02:00,
2013-01-06 21:12:00,47.0,39.0,30.05,South,176,0.0,0.0,75,0.00,,,0.03,,2013-01-07 05:12:00,
2013-01-06 21:22:00,47.0,38.0,30.04,SSW,195,0.0,0.0,71,0.00,,,0.03,,2013-01-07 05:22:00,
2013-01-06 21:32:00,47.0,38.0,30.04,SW,222,0.0,0.0,71,0.00,,,0.03,,2013-01-07 05:32:00,
2013-01-06 21:42:00,47.0,38.0,30.04,SW,222,0.0,0.0,71,0.00,,,0.03,,2013-01-07 05:42:00,
2013-01-06 21:52:00,47.0,39.0,30.04,South,176,0.0,0.0,74,0.00,,,0.03,,2013-01-07 05:52:00,
2013-01-06 22:02:00,47.0,39.0,30.04,SSW,199,0.0,0.0,75,0.01,,,0.04,,2013-01-07 06:02:00,
2013-01-06 22:12:00,47.0,39.0,30.04,SSW,199,0.0,0.0,75,0.01,,,0.04,,2013-01-07 06:12:00,
2013-01-06 22:22:00,46.0,40.0,30.04,SSE,158,0.0,0.0,78,0.01,,,0.04,,2013-01-07 06:22:00,
2013-01-06 22:32:00,46.0,40.0,30.04,SE,145,0.0,0.0,79,0.01,,,0.04,,2013-01-07 06:32:00,
2013-01-06 22:42:00,46.0,40.0,30.04,SE,145,0.0,0.0,79,0.01,,,0.04,,2013-01-07 06:42:00,
2013-01-06 22:52:00,46.0,40.0,30.04,South,187,0.0,0.0,80,0.02,,,0.05,,2013-01-07 06:52:00,
2013-01-06 23:02:00,46.0,41.0,30.04,South,186,0.0,0.0,82,0.02,,,0.06,,2013-01-07 07:02:00,
2013-01-06 23:11:00,46.0,41.0,30.04,South,186,0.0,0.0,82,0.02,,,0.06,,2013-01-07 07:11:00,
2013-01-06 23:22:00,45.0,40.0,30.03,South,180,0.0,0.0,83,0.03,,,0.07,,2013-01-07 07:22:00,
2013-01-06 23:32:00,45.0,40.0,30.03,SSW,192,0.0,0.0,83,0.04,,,0.08,,2013-01-07 07:32:00,
2013-01-06 23:42:00,45.0,40.0,30.03,SSW,192,0.0,0.0,83,0.04,,,0.08,,2013-01-07 07:42:00,
2013-01-06 23:52:00,45.0,40.0,30.03,South,177,0.0,0.0,84,0.04,,,0.09,,2013-01-07 07:52:00,